Location: Newark
(16.3678°N, 77.8722°E)
Time: 10:08:24
(UTC+00:00)

deb Explorer IX - Visible Passes

Search period start: 13 December 2019 00:00
Search period end: 23 December 2019 00:00
Orbit: 546 x 1104 km, 38.8° (Epoch: 12 December)

Date Brightness Start Highest point End Pass type
(mag) Time Alt. Az. Time Alt. Az. Time Alt. Az.
13 Dec ? 13:47:27 10° N 13:50:08 14° NNE 13:50:08 14° NNE visible
14 Dec ? 13:25:27 10° N 13:28:43 14° NNE 13:29:30 14° NNE visible
14 Dec ? 15:10:44 10° NW 15:10:54 11° NW 15:10:54 11° NW visible
15 Dec ? 13:03:29 10° N 13:06:36 14° NNE 13:09:00 12° NE visible
15 Dec ? 14:48:38 10° NW 14:50:24 18° NNW 14:50:24 18° NNW visible
16 Dec ? 12:41:33 10° N 12:44:30 13° NNE 12:47:34 10° NE visible
16 Dec ? 14:26:33 10° NW 14:30:04 29° NNW 14:30:04 29° NNW visible
17 Dec ? 14:04:28 10° NW 14:09:57 41° NNE 14:09:57 41° NNE visible
18 Dec ? 13:42:25 10° NW 13:48:28 43° NE 13:50:06 37° ENE visible
18 Dec ? 15:29:23 10° WNW 15:31:33 21° WNW 15:31:33 21° WNW visible
19 Dec ? 13:20:23 10° NW 13:26:18 43° NE 13:30:36 21° E visible
19 Dec ? 15:07:20 10° WNW 15:12:05 40° WSW 15:12:05 40° WSW visible
20 Dec ? 12:58:21 10° NW 13:04:07 43° NE 13:10:39 10° ESE visible
20 Dec ? 14:45:17 10° WNW 14:51:31 45° SW 14:53:06 39° S visible
21 Dec ? 12:36:21 10° NW 12:41:58 43° NE 12:48:23 10° ESE visible
21 Dec ? 14:23:15 10° WNW 14:29:18 43° SW 14:34:45 15° SSE visible
22 Dec ? 14:01:15 10° WNW 14:07:07 42° SW 14:13:40 10° SSE visible
